sat.trackr.live / text

‹ back to catalog

ONEWEB-0315

NORAD 49101 · 2021-075AC

PAYLOAD ACTIVE UNKNOWN

§ Identity

Operator
Country
UK
Launch date
2021-08-21
Launch site
TYMSC
Launch vehicle
Mass (kg)
RCS (m²)

Purposes: comms

External: N2YO · Heavens-Above · Gunter

§ Orbital elements

Epoch: 2026-05-25T02:36:27.112896Z

Period
109.72 min
Inclination
87.8959°
Eccentricity
0.0002172
Mean motion
13.12442377 rev/d
Perigee alt
1,212.1 km
Apogee alt
1,215.4 km
Semi-major
7,591.9 km
B*
1.4599e-3
RAAN
355.2338°
Arg perigee
88.4879°
Mean anomaly
271.6498°
Rev number
23,214

§ Raw data

ONEWEB-03151 49101U 21075AC  26145.10864714  .00000538  00000+0  14599-2 0  99942 49101  87.8959 355.2338 0002172  88.4879 271.6498 13.12442377232141

JSON: /api/v1/satellites/49101 · /tle

For live sub-satellite position, see the globe view (requires WebGL).

§ Visibility from observer

Set your observer location to see the next 7 days of passes ≥ 10°. The values pass through the URL so the page stays shareable.

No JS? Fill the form by hand. The geolocation button needs JavaScript.